Location: Saint-Palais-sur-Mer
(45.6429°N, 1.0859°W)
Time: 09:31:41
(UTC+02:00)

TIGRISAT - Pass Details

Date: 30 April 2024
Orbit: 594 x 672 km, 97.7° (Epoch: 21 May)

Event Time Altitude Azimuth Distance (km) Brightness Sun altitude
Rises 06:03:35 0° 170° (S) 2,898 ? -8.5°
Reaches altitude 10° 06:05:47 10° 172° (S) 1,983 ? -8.2°
Maximum altitude 06:10:05 75° 257° (WSW) 637 ? -7.6°
Drops below altitude 10° 06:14:21 10° 344° (NNW) 1,959 ? -6.9°
Sets 06:16:31 0° 346° (NNW) 2,859 ? -6.6°
